Regional Weather Roundup
Issued by NWS Newport/Morehead, NC

Current Version | Previous Version | Graphics & Text | Print | Product List | Glossary Off
Versions: 1 2 3 4 5 6 7 8 9 10 11 12 13 14 15 16 17 18 19 20 21 22 23 24 25 26 27 28 29 30 31 32 33 34 35 36 37 38 39 40 41 42 43 44 45 46

000
ASUS42 KMHX 181726
RWRMHX
WEATHER ROUNDUP FOR EASTERN NORTH CAROLINA
NATIONAL WEATHER SERVICE NEWPORT/MOREHEAD CITY NC
100 PM EDT FRI AUG 18 2017

NOTE: "FAIR" INDICATES FEW OR NO CLOUDS BELOW 12,000 FEET
WITH NO SIGNIFICANT WEATHER AND/OR OBSTRUCTIONS TO VISIBILITY

NCZ015>017-031-032-045>047-102-103-181800-
NORTH COAST

CITY           SKY/WX    TMP DP  RH WIND       PRES   REMARKS
EDENTON        SUNNY     92  81  70 SW7       29.91F HX 112
ELIZABETH CITY MOSUNNY   91  82  75 S8G18     29.90F HX 113
KITTY HAWK     SUNNY     91  77  65 CALM      29.91F HX 104
MANTEO         MOSUNNY   87  80  80 S15       29.92F HX 103

$$

NCZ045>047-081-094-103-104-181800-
CENTRAL COAST

CITY           SKY/WX    TMP DP  RH WIND       PRES   REMARKS
FRISCO         SUNNY     89  82  79 SW10      29.95F HX 110

$$

NCZ095-097-098-100-101-181800-
SOUTHERN COAST

CITY           SKY/WX    TMP DP  RH WIND       PRES   REMARKS
BEAUFORT       CLOUDY    87  83  87 SW16      29.94F HX 108
CEDAR ISLAND   NOT AVBL
JACKSONVILLE   TSTM      87  81  82 S8        29.92F HX 104
PINEY ISLAND     N/A    N/A N/A N/A W14G21    29.93F
WILMINGTON     PTSUNNY   93  76  57 W10       29.93F HX 105


$$

NCZ011>013-027>030-043-044-078>080-089-090>093-098-181800-
COASTAL PLAIN

CITY           SKY/WX    TMP DP  RH WIND       PRES   REMARKS
AHOSKIE          N/A     88  80  77 S8        29.90F HX 103
CLINTON        MOSUNNY   91  77  63 SW7G17    29.92F HX 105
ELIZABETHTOWN  NOT AVBL
GOLDSBORO      SUNNY     93  82  70 SW12      29.90F HX 117
GREENVILLE     MOSUNNY   91  77  62 SW9G17    29.92F HX 105
HAVELOCK       CLOUDY    92  80  68 S13       29.92F HX 110
KENANSVILLE    MOSUNNY   91  77  62 W9        29.91F HX 105
KINSTON        PTSUNNY   93  77  59 S9        29.92F HX 107
NEW BERN       MOSUNNY   94  78  60 SW8       29.92F HX 110
RICHLANDS      SUNNY     91  82  75 W5        29.92F HX 114
ROCKY MOUNT    SUNNY     91  77  63 SW10      29.91F HX 104
WASHINGTON     SUNNY     93  78  62 SW7       29.90F HX 108
WHITEVILLE     MOSUNNY   92  76  59 S8        29.93F HX 104

$$

AMZ130-135-150-152-154-156-158-170-250-252-270-ANZ085-086-088-633-658-670-181800-
MARINE OBSERVATIONS

STATION/POSITION TIME  TEMP    WIND        PRES    WAVE   SWELL
                       AIR SEA DIR/SP/G            HT/PER HT/PER
                 (UTC) (F)     (DEG/KT/KT) (MB)    (FT/S) (FT/S)
CHESAPEAKE LIGHT NOT AVBL
64 E VA BEACH    1650   80 78  170/ 12/ 12 1014.2    2/ 8   2/ 8
DUCK             1700   84 76  130/  9/ 10 1012.5
2 E DUCK         1700      80                N/A     2/ 8
OREGON INLET     1700   85 84  180/ 13/ 16 1013.4
13E OREGON INLT  1648      81                N/A     3/ 8   2/ 8
HATTERAS CG      1700   87 84  190/  5/  9 1013.8
DIAMOND BUOY     1650   85 86  200/ 12/ 14 1014.5    2/ 7   2/ 7
CAPE LOOKOUT     1700   85     200/ 15/ 17 1013.7
BEAUFORT LAB     1700   85 82  200/ 14/ 17 1013.2
30 SE NEW RVR IN 1708   83 84  220/ 14/ 17 1014.2
30 SE NEW RVR IN 1713      84                N/A     3/ 5
27 SE WRIGHTSVLE 1708   84 84  210/ 14/ 17 1014.1
5 SE WRIGHTSVLE  1708   84 84  220/ 10/ 16 1014.0
225 S CAPE HAT   1650   84 85  240/ 10/ 12 1017.3    3/ 4   2/ 7
41 SE CHARLESTON 1710   84 85  230/ 10/ 12 1014.8

$$




USA.gov is the U.S. government's official web portal to all federal, state and local government web resources and services.